Back to catalog

STARLINK-30312

AliveCommunicationsVLEO
NORAD 57641·PAYLOAD·🇺🇸 United States

Launched Aug 17, 2023 from Cape Canaveral Space Force Station

Loading…

Next Passes (next 24 hours)

TLE

FreshSource: CelesTrak SupGP

Epoch: Sep 15, 2026, 02:36 UTC

1 57641C 23122K   26258.10881944  .00015795  00000+0  57196-3 0  2586
2 57641  42.9989 102.3558 0001509 270.9364 352.5908 15.27578053    12

Track STARLINK-30312 in real time with AllMySat

Download on the App Store